Regional Weather Roundup
Issued by NWS

Home | Current Version | Previous Version | Text Only | Print | Product List | Glossary Off
Versions: 1 2 3 4 5 6 7 8 9 10 11 12 13 14 15 16 17 18 19 20 21 22 23 24 25 26 27

000
ASUS45 KCYS 150810
RWRWY

WYOMING REGIONAL WEATHER ROUNDUP
NATIONAL WEATHER SERVICE CHEYENNE WY
100 AM MST FRI DEC 15 2017

NOTE:  "FAIR" INDICATES FEW OR NO CLOUDS BELOW 12,000 FEET
WITH NO SIGNIFICANT WEATHER AND/OR OBSTRUCTIONS TO VISIBILITY.

WYZ001-150900-
YELLOWSTONE NATIONAL PARK

CITY           SKY/WX    TMP DP  RH WIND       PRES   REMARKS
LK YELLOWSTONE   N/A      4   1  88 W3        30.30F
W YELLOWSTONE  NOT AVBL

$$
WYZ002>013-054>058-071-098>099-150900-
NORTHERN WYOMING

CITY           SKY/WX    TMP DP  RH WIND       PRES   REMARKS
JACKSON        FAIR       7   5  91 CALM      30.32F
CODY           FAIR      20  15  81 NE3       30.07F
GREYBULL       FAIR      23  16  74 SE3       30.12F
WORLAND        FAIR      15  13  91 CALM      30.11F
SHERIDAN       FAIR      19  14  81 CALM      30.01F
BUFFALO        FAIR      34   1  24 CALM      30.02F
GILLETTE       FAIR      29  16  58 SW14      30.02F WCI  18
HULETT         FAIR      28  19  69 SW13      30.01F WCI  18
NEWCASTLE      FAIR      18  14  86 N6        30.06F WCI   9

$$
WYZ014>020-022>026-101>103-150900-
CENTRAL WYOMING

CITY           SKY/WX    TMP DP  RH WIND       PRES   REMARKS
BIG PINEY      FAIR      10   4  76 SE3       30.26F
PINEDALE       FAIR       9   7  92 CALM      30.25F
DUBOIS         FAIR      30   1  29 NW15G22   30.16F WCI  19
LANDER         FAIR      21  14  74 CALM      30.11F
RIVERTON       FAIR      17  14  88 NW3       30.13F
CASPER         FAIR      29  18  63 SW22      30.10F WCI  15
DOUGLAS        FAIR      24  15  68 NW7       30.08F WCI  16

$$
WYZ021-027>030-104>119-150900-
SOUTHERN WYOMING

CITY           SKY/WX    TMP DP  RH WIND       PRES   REMARKS
EVANSTON       FAIR      23  15  71 SW15      30.33F WCI  10
FORT BRIDGER   FAIR      31   3  30 W21       30.31F WCI  19
ROCK SPRINGS   FAIR      26  11  52 SW13      30.24F WCI  15
DIXON          FAIR      14  10  83 E8        30.34R WCI   3
RAWLINS        FAIR      26  17  68 SW10      30.21S WCI  16
SARATOGA       FAIR      18  10  73 SE9       30.25R WCI   6
LARAMIE        FAIR      19   8  62 SW17      30.14F WCI   4
CHEYENNE       FAIR      28  11  48 W17       30.09F WCI  16
TORRINGTON     FAIR      10   8  92 CALM      30.10F
PINE BLUFFS    FAIR      18  10  73 W7        30.12F WCI   8

$$




USA.gov is the U.S. government's official web portal to all federal, state and local government web resources and services.